Insider Stock Trading History of Sabry James H


The following table details the trading activities (stock purchases, stock sales, and stock option exercises) reported to the Securities and Exchange Commission (SEC) by insider Sabry James H since year 2005. The trader's CIK number is 1288858. At the time of this reporting, Sabry James H is the Executive Chairman of Cytokinetics Inc . (stock ticker symbol CYTK). See this page for all insider trading activities at Cytokinetics Inc .


Stock purchases, sales, and option exercises reported by insider Sabry James H since 2005.
  Trade Date   Symbol Company Name (Issuer) Trade Type     Shares       Price ($)   Value ($)
2010-06-03 CYTK Cytokinetics Inc Option Ex 25,000 .58 14,499
2010-06-03 CYTK Cytokinetics Inc Sale 25,000 2.91 72,725
2010-06-03 CYTK Cytokinetics Inc Option Ex 25,000 .58 14,499
2010-06-03 CYTK Cytokinetics Inc Sale 25,000 2.91 72,725
2010-05-18 CYTK Cytokinetics Inc Sale 25,000 3.02 75,375
2010-05-18 CYTK Cytokinetics Inc Option Ex 25,000 .58 14,499
2010-05-12 CYTK Cytokinetics Inc Option Ex 10,000 1.20 12,000
2010-05-12 CYTK Cytokinetics Inc Sale 10,000 3.00 30,000
2010-04-26 CYTK Cytokinetics Inc Sale 10,000 3.18 31,750
2010-04-26 CYTK Cytokinetics Inc Option Ex 10,000 1.20 12,000
2010-03-31 CYTK Cytokinetics Inc Sale 10,000 3.23 32,340
2010-03-31 CYTK Cytokinetics Inc Option Ex 10,000 1.20 12,000
2009-12-15 CYTK Cytokinetics Inc Option Ex 34,500 .89 30,705
2009-12-16 CYTK Cytokinetics Inc Option Ex 20,000 .58 11,600
2009-12-15 CYTK Cytokinetics Inc Sale 34,500 3.06 105,708
2009-12-16 CYTK Cytokinetics Inc Sale 19,500 3.00 58,402
2009-12-16 CYTK Cytokinetics Inc Sale 500 3.09 1,545
2009-12-02 CYTK Cytokinetics Inc Option Ex 48,906 .58 28,365
2009-12-02 CYTK Cytokinetics Inc Sale 48,906 3.14 153,711
2009-11-17 CYTK Cytokinetics Inc Sale 48,800 3.45 168,506
2009-11-17 CYTK Cytokinetics Inc Option Ex 48,800 1.20 58,560
2009-11-13 CYTK Cytokinetics Inc Sale 66,200 3.35 221,968
2009-11-16 CYTK Cytokinetics Inc Option Ex 66,000 1.20 79,200
2009-11-16 CYTK Cytokinetics Inc Sale 66,000 3.42 225,390
2009-11-13 CYTK Cytokinetics Inc Option Ex 35,940 .58 20,845
2009-08-20 CYTK Cytokinetics Inc Option Ex 20,000 .58 11,600
2009-08-19 CYTK Cytokinetics Inc Option Ex 29,100 .58 16,878
2009-08-20 CYTK Cytokinetics Inc Sale 20,000 2.85 57,000
2009-08-19 CYTK Cytokinetics Inc Sale 29,100 2.82 82,062
2009-08-17 CYTK Cytokinetics Inc Sale 13,400 2.76 36,984
2009-08-17 CYTK Cytokinetics Inc Option Ex 13,400 .58 7,771
2009-06-26 CYTK Cytokinetics Inc Sale 20,000 2.84 56,780
2009-06-29 CYTK Cytokinetics Inc Sale 20,000 2.89 57,840
2009-06-04 CYTK Cytokinetics Inc Sale 30,200 2.86 86,462
2009-06-05 CYTK Cytokinetics Inc Sale 29,800 2.86 85,377
2008-09-26 CYTK Cytokinetics Inc Sale 20,000 4.83 96,660
2008-09-24 CYTK Cytokinetics Inc Sale 20,000 4.80 95,920
2007-12-03 CYTK Cytokinetics Inc Sale 7,000 5.00 35,000
2007-12-03 CYTK Cytokinetics Inc Option Ex 7,000 1.20 8,400
2007-11-01 CYTK Cytokinetics Inc Option Ex 7,000 1.20 8,400
2007-11-01 CYTK Cytokinetics Inc Sale 7,000 5.00 35,000
2007-10-01 CYTK Cytokinetics Inc Option Ex 7,000 1.20 8,400
2007-10-01 CYTK Cytokinetics Inc Sale 7,000 5.05 35,329
2007-08-01 CYTK Cytokinetics Inc Sale 7,000 5.00 35,000
2007-08-01 CYTK Cytokinetics Inc Option Ex 7,000 1.20 8,400
2007-07-02 CYTK Cytokinetics Inc Sale 7,000 5.71 39,970
2007-07-02 CYTK Cytokinetics Inc Option Ex 7,000 1.20 8,400
2007-06-11 CYTK Cytokinetics Inc Option Ex 7,000 .89 6,230
2007-06-11 CYTK Cytokinetics Inc Sale 7,000 6.39 44,730
2007-02-01 CYTK Cytokinetics Inc Sale 7,000 7.89 55,216
2007-02-01 CYTK Cytokinetics Inc Option Ex 7,000 1.20 8,400
2007-01-03 CYTK Cytokinetics Inc Option Ex 7,000 1.20 8,400
2007-01-03 CYTK Cytokinetics Inc Sale 7,000 8.70 60,865
2006-12-01 CYTK Cytokinetics Inc Sale 7,000 7.34 51,380
2006-12-01 CYTK Cytokinetics Inc Option Ex 7,000 .89 6,230
2006-11-01 CYTK Cytokinetics Inc Option Ex 7,000 .58 4,059
2006-11-01 CYTK Cytokinetics Inc Sale 7,000 7.30 51,100
2006-10-02 CYTK Cytokinetics Inc Option Ex 7,000 .58 4,059
2006-10-02 CYTK Cytokinetics Inc Sale 7,000 6.44 45,080
2006-09-01 CYTK Cytokinetics Inc Option Ex 7,000 .58 4,059
2006-09-01 CYTK Cytokinetics Inc Sale 7,000 6.79 47,530
2006-08-01 CYTK Cytokinetics Inc Option Ex 7,000 .58 4,059
2006-08-01 CYTK Cytokinetics Inc Sale 7,000 5.86 40,985
2006-07-03 CYTK Cytokinetics Inc Sale 7,000 6.54 45,766
2006-07-03 CYTK Cytokinetics Inc Option Ex 7,000 .58 4,059
2006-06-01 CYTK Cytokinetics Inc Sale 7,000 6.88 48,146
2006-06-01 CYTK Cytokinetics Inc Option Ex 7,000 .58 4,059
2006-05-01 CYTK Cytokinetics Inc Option Ex 7,000 .58 4,059
2006-05-01 CYTK Cytokinetics Inc Sale 7,000 7.18 50,260
2006-04-03 CYTK Cytokinetics Inc Sale 177 7.65 1,354
2006-04-03 CYTK Cytokinetics Inc Option Ex 177 .58 102
2006-04-03 CYTK Cytokinetics Inc Sale 6,823 7.56 51,554
2006-04-03 CYTK Cytokinetics Inc Option Ex 6,823 .58 3,957
2006-03-01 CYTK Cytokinetics Inc Option Ex 7,000 .58 4,059
2006-03-01 CYTK Cytokinetics Inc Sale 7,000 7.14 49,980
2006-02-08 CYTK Cytokinetics Inc Option Ex 7,000 .58 4,059
2006-02-08 CYTK Cytokinetics Inc Sale 7,000 7.33 51,289
2005-11-08 CYTK Cytokinetics Inc Sale 2,000 8.50 17,000
2005-11-07 CYTK Cytokinetics Inc Sale 6,000 8.70 52,199

Insider trading activities including stock purchases, stock sales, and option exercises listed in the above table cannot be completely guaranteed as to their accuracy. For more information regarding the trades made by Sabry James H (Executive Chairman of Cytokinetics Inc at the time of this reporting) see the Securities and Exchange Commission (SEC) website.